When you browse on this site, cookies collect data to enhance your experience and personalize the content and advertising you see.
Visit our Privacy Policy to learn more. By continuing to use the site, you agree to this use of cookies and data.
  • In Norway
  • List of Countries
  • For 7 days
  • Water Temperature
  • Satellite Maps
  • Weather Map
  • Weather Widgets
  • user-avatar
    Login

    Hourly Weather Maan

    Today, 25 June, Tuesday

    Time Temperature Precipitation Wind Pressure Humidity
    00:00 +22°C° 0 mm 1 mps 636 mmHg 44%
    01:00 +22°C° 0 mm 1 mps 635 mmHg 45%
    02:00 +21°C° 0 mm 1 mps 635 mmHg 45%
    03:00 +21°C° 0 mm 1 mps 635 mmHg 44%
    04:00 +20°C° 0 mm 2 mps 635 mmHg 43%
    05:00 +20°C° 0 mm 2 mps 635 mmHg 42%
    06:00 +22°C° 0 mm 3 mps 636 mmHg 36%
    07:00 +26°C° 0 mm 4 mps 637 mmHg 30%
    08:00 +28°C° 0 mm 5 mps 637 mmHg 24%
    09:00 +29°C° 0 mm 4 mps 638 mmHg 22%
    10:00 +32°C° 0 mm 4 mps 638 mmHg 19%
    11:00 +34°C° 0 mm 3 mps 638 mmHg 17%
    12:00 +34°C° 0 mm 4 mps 638 mmHg 16%
    13:00 +35°C° 0 mm 4 mps 638 mmHg 15%
    14:00 +36°C° 0 mm 5 mps 638 mmHg 14%
    15:00 +35°C° 0 mm 5 mps 638 mmHg 15%
    16:00 +34°C° 0 mm 5 mps 638 mmHg 17%
    17:00 +34°C° 0 mm 6 mps 637 mmHg 18%
    18:00 +30°C° 0 mm 5 mps 637 mmHg 26%
    19:00 +28°C° 0 mm 4 mps 637 mmHg 33%
    20:00 +25°C° 0 mm 3 mps 636 mmHg 41%
    21:00 +24°C° 0 mm 2 mps 636 mmHg 45%
    22:00 +23°C° 0 mm 2 mps 636 mmHg 49%
    23:00 +21°C° 0 mm 2 mps 636 mmHg 53%

    Tomorrow, 26 June, Wednesday

    Time Temperature Precipitation Wind Pressure Humidity
    00:00 +21°C° 0 mm 2 mps 636 mmHg 53%
    01:00 +20°C° 0 mm 2 mps 636 mmHg 53%
    02:00 +20°C° 0 mm 2 mps 635 mmHg 53%
    03:00 +20°C° 0 mm 2 mps 635 mmHg 52%
    04:00 +21°C° 0 mm 1 mps 635 mmHg 51%
    05:00 +20°C° 0 mm 1 mps 635 mmHg 50%
    06:00 +23°C° 0 mm 1 mps 636 mmHg 43%
    07:00 +25°C° 0 mm 1 mps 637 mmHg 37%
    08:00 +27°C° 0 mm 1 mps 638 mmHg 30%
    09:00 +29°C° 0 mm 2 mps 638 mmHg 25%
    10:00 +31°C° 0 mm 3 mps 639 mmHg 21%
    11:00 +34°C° 0 mm 4 mps 639 mmHg 16%
    12:00 +34°C° 0 mm 4 mps 639 mmHg 14%
    13:00 +35°C° 0 mm 5 mps 639 mmHg 13%
    14:00 +35°C° 0 mm 5 mps 639 mmHg 12%
    15:00 +35°C° 0 mm 6 mps 639 mmHg 12%
    16:00 +35°C° 0 mm 6 mps 638 mmHg 12%
    17:00 +35°C° 0 mm 6 mps 638 mmHg 13%
    18:00 +32°C° 0 mm 5 mps 638 mmHg 20%
    19:00 +29°C° 0 mm 4 mps 637 mmHg 27%
    20:00 +26°C° 0 mm 3 mps 637 mmHg 34%
    21:00 +25°C° 0 mm 2 mps 637 mmHg 34%
    22:00 +24°C° 0 mm 2 mps 636 mmHg 35%
    23:00 +24°C° 0 mm 2 mps 636 mmHg 36%

    Day after tomorrow, 27 June, Thursday

    Time Temperature Precipitation Wind Pressure Humidity
    00:00 +23°C° 0 mm 2 mps 636 mmHg 37%
    01:00 +21°C° 0 mm 2 mps 636 mmHg 38%
    02:00 +21°C° 0 mm 2 mps 635 mmHg 39%
    03:00 +20°C° 0 mm 2 mps 635 mmHg 35%
    04:00 +20°C° 0 mm 2 mps 635 mmHg 31%
    05:00 +20°C° 0 mm 2 mps 635 mmHg 27%
    06:00 +22°C° 0 mm 3 mps 636 mmHg 24%
    07:00 +25°C° 0 mm 3 mps 637 mmHg 20%
    08:00 +28°C° 0 mm 3 mps 638 mmHg 16%
    09:00 +29°C° 0 mm 4 mps 638 mmHg 15%
    10:00 +30°C° 0 mm 4 mps 638 mmHg 13%
    11:00 +32°C° 0 mm 5 mps 638 mmHg 12%
    12:00 +33°C° 0 mm 5 mps 638 mmHg 12%
    13:00 +33°C° 0 mm 5 mps 637 mmHg 11%
    14:00 +33°C° 0 mm 6 mps 637 mmHg 11%
    15:00 +33°C° 0 mm 6 mps 637 mmHg 12%
    16:00 +33°C° 0 mm 7 mps 636 mmHg 12%
    17:00 +32°C° 0 mm 8 mps 636 mmHg 13%
    18:00 +29°C° 0 mm 7 mps 636 mmHg 18%
    19:00 +26°C° 0 mm 6 mps 635 mmHg 24%
    20:00 +23°C° 0 mm 5 mps 635 mmHg 30%
    21:00 +22°C° 0 mm 4 mps 635 mmHg 30%
    22:00 +22°C° 0 mm 4 mps 635 mmHg 30%
    23:00 +21°C° 0 mm 4 mps 635 mmHg 30%

    28 June, Friday

    Time Temperature Precipitation Wind Pressure Humidity
    00:00 +20°C° 0 mm 4 mps 634 mmHg 31%
    01:00 +20°C° 0 mm 4 mps 634 mmHg 32%
    02:00 +19°C° 0 mm 4 mps 633 mmHg 33%
    03:00 +19°C° 0 mm 4 mps 633 mmHg 34%
    04:00 +19°C° 0 mm 3 mps 633 mmHg 36%
    05:00 +18°C° 0 mm 3 mps 633 mmHg 37%
    06:00 +20°C° 0 mm 4 mps 634 mmHg 34%
    07:00 +23°C° 0 mm 5 mps 634 mmHg 30%
    08:00 +26°C° 0 mm 6 mps 635 mmHg 26%
    09:00 +27°C° 0 mm 7 mps 635 mmHg 25%
    10:00 +28°C° 0 mm 7 mps 635 mmHg 23%
    11:00 +29°C° 0 mm 8 mps 635 mmHg 21%
    12:00 +31°C° 0 mm 8 mps 635 mmHg 19%
    13:00 +32°C° 0 mm 9 mps 635 mmHg 17%
    14:00 +33°C° 0 mm 10 mps 635 mmHg 16%
    15:00 +32°C° 0 mm 9 mps 635 mmHg 17%
    16:00 +31°C° 0 mm 9 mps 635 mmHg 19%
    17:00 +31°C° 0 mm 9 mps 634 mmHg 20%
    18:00 +27°C° 0 mm 7 mps 634 mmHg 30%
    19:00 +23°C° 0 mm 5 mps 633 mmHg 41%
    20:00 +21°C° 0 mm 3 mps 633 mmHg 51%
    21:00 +20°C° 0 mm 2 mps 633 mmHg 50%
    22:00 +20°C° 0 mm 2 mps 633 mmHg 50%
    23:00 +19°C° 0 mm 2 mps 633 mmHg 50%

    29 June, Saturday

    Time Temperature Precipitation Wind Pressure Humidity
    00:00 +19°C° 0 mm 2 mps 633 mmHg 54%
    01:00 +18°C° 0 mm 2 mps 632 mmHg 58%
    02:00 +18°C° 0 mm 2 mps 632 mmHg 61%
    03:00 +17°C° 0 mm 3 mps 632 mmHg 64%
    04:00 +17°C° 0 mm 3 mps 632 mmHg 67%
    05:00 +17°C° 0 mm 4 mps 632 mmHg 70%
    06:00 +18°C° 0 mm 4 mps 632 mmHg 61%
    07:00 +20°C° 0 mm 4 mps 633 mmHg 52%
    08:00 +21°C° 0 mm 4 mps 633 mmHg 44%
    09:00 +23°C° 0 mm 4 mps 634 mmHg 39%
    10:00 +25°C° 0 mm 4 mps 634 mmHg 34%
    11:00 +27°C° 0 mm 4 mps 634 mmHg 29%
    12:00 +28°C° 0 mm 4 mps 634 mmHg 26%
    13:00 +29°C° 0 mm 5 mps 634 mmHg 23%
    14:00 +30°C° 0 mm 5 mps 634 mmHg 20%
    15:00 +29°C° 0 mm 5 mps 634 mmHg 21%
    16:00 +29°C° 0 mm 5 mps 634 mmHg 22%
    17:00 +29°C° 0 mm 5 mps 634 mmHg 24%
    18:00 +26°C° 0 mm 5 mps 634 mmHg 35%
    19:00 +23°C° 0 mm 5 mps 633 mmHg 46%
    20:00 +21°C° 0 mm 5 mps 633 mmHg 57%
    21:00 +20°C° 0 mm 4 mps 633 mmHg 55%
    22:00 +19°C° 0 mm 3 mps 633 mmHg 52%
    23:00 +19°C° 0 mm 2 mps 633 mmHg 49%

    30 June, Sunday

    Time Temperature Precipitation Wind Pressure Humidity
    00:00 +18°C° 0 mm 2 mps 633 mmHg 50%
    01:00 +18°C° 0 mm 2 mps 632 mmHg 51%
    02:00 +17°C° 0 mm 2 mps 632 mmHg 53%
    03:00 +17°C° 0 mm 2 mps 632 mmHg 53%
    04:00 +16°C° 0 mm 2 mps 632 mmHg 54%
    05:00 +16°C° 0 mm 2 mps 632 mmHg 54%
    06:00 +18°C° 0 mm 2 mps 633 mmHg 47%
    07:00 +21°C° 0 mm 2 mps 634 mmHg 39%
    08:00 +24°C° 0 mm 2 mps 634 mmHg 32%
    09:00 +26°C° 0 mm 3 mps 635 mmHg 28%
    10:00 +27°C° 0 mm 3 mps 635 mmHg 25%
    11:00 +29°C° 0 mm 4 mps 635 mmHg 21%
    12:00 +29°C° 0 mm 4 mps 635 mmHg 19%
    13:00 +30°C° 0 mm 5 mps 635 mmHg 17%
    14:00 +32°C° 0 mm 5 mps 635 mmHg 15%
    15:00 +32°C° 0 mm 6 mps 635 mmHg 15%
    16:00 +30°C° 0 mm 6 mps 635 mmHg 15%
    17:00 +30°C° 0 mm 7 mps 634 mmHg 15%
    18:00 +28°C° 0 mm 6 mps 634 mmHg 25%
    19:00 +25°C° 0 mm 5 mps 633 mmHg 35%
    20:00 +22°C° 0 mm 4 mps 633 mmHg 45%
    21:00 +21°C° 0 mm 4 mps 633 mmHg 43%
    22:00 +21°C° 0 mm 3 mps 633 mmHg 42%
    23:00 +20°C° 0 mm 3 mps 633 mmHg 40%
    Show more